Home   Weather   Swakopmund   Past weeks

Flag for Namibia Past Weather in Swakopmund, Namibia — Yesterday and Last 2 Weeks

Now
73 °F

Mild.


Feels Like: 77 °F
Forecast: 62 / 73 °F
Wind: 10 mph from Northwest

Location: Walvis Bay

Current Time: Dec 5, 2016 at 12:29:25 pm

Latest Report: Dec 5, 2016 at 12:00 pm


Visibility: N/A

Pressure: 29.92 "Hg

Humidity: 57%

Dew Point: 57 °F

Location of SwakopmundLocation

Past Weather in Swakopmund — Graph

°F

Swakopmund Temperature Yesterday

Maximum temperature yesterday: 82 °F (at 4:00 pm)
Minimum temperature yesterday: 59 °F (at 1:00 am)
Average temperature yesterday: 66 °F

High & Low Weather Summary for the Past Weeks

 TemperatureHumidityPressure
High82 °F (Nov 21, 7:00 pm)94% (Nov 21, 6:00 am)30.07 "Hg (Nov 21, 6:00 am)
Low55 °F (Dec 2, 1:00 am)30% (Nov 21, 7:00 pm)29.74 "Hg (Nov 28, 6:00 pm)
Average65 °F73%29.92 "Hg
* Reported Nov 20 12:00 pm — Dec 5 11:00 am, Swakopmund, Weather by CustomWeather, © 2016

Note: Actual official high and low records may vary slightly from our data, if they occured in-between our weather recording intervals... More about our weather records

Advertising

Swakopmund Weather History for the Previous 24 Hours

Scroll right to see more
 ConditionsComfort  
Time TempWeatherWind HumidityBarometerVisibility
11:00 am
Mon, Dec 5
77 °FSunny.7 mph57%29.89 "Hg10 mi
10:00 am73 °FSunny.5 mph65%29.89 "Hg10 mi
9:00 am75 °FMild.9 mph50%29.92 "HgN/A
8:00 am70 °FSunny.8 mph73%29.89 "Hg10 mi
5:00 am59 °FCool.3 mph88%29.92 "HgN/A
4:00 am59 °FCool.3 mph88%29.92 "HgN/A
3:00 am59 °FCool.2 mph88%29.89 "HgN/A
2:00 am61 °FCool.3 mph83%29.92 "HgN/A
1:00 am61 °FCool.3 mph83%29.95 "HgN/A
12:00 am61 °FCool.12 mph83%29.98 "HgN/A
11:00 pm
Sun, Dec 4
63 °FMild.7 mph77%29.95 "HgN/A
10:00 pm63 °FMild.5 mph73%29.92 "HgN/A
9:00 pm66 °FMild.9 mph68%29.92 "HgN/A
8:00 pm72 °FMild.8 mph57%29.89 "HgN/A
7:00 pm72 °FMild.7 mph57%29.86 "HgN/A
6:00 pm72 °FMild.15 mph57%29.86 "HgN/A
5:00 pm79 °FWarm.14 mph45%29.86 "HgN/A
4:00 pm82 °FPleasantly warm.7 mph35%29.86 "HgN/A
3:00 pm77 °FWarm.7 mph44%29.89 "HgN/A
2:00 pm73 °FMild.8 mph53%29.92 "HgN/A
1:00 pm72 °FMild.8 mph57%29.95 "HgN/A
12:00 pm70 °FMild.5 mph60%29.95 "HgN/A
Weather by CustomWeather, © 2016

See weather overviewHow to use our weather pages